Location: Newark
(13.5236°S, 71.9791°W)
Time: 14:23:03
(UTC+00:00)

OTV 5 (USA 277) - Pass Details

Date: 25 July 2019
Orbit: 305 x 329 km, 54.5° (Epoch: 20 August)

Event Time Altitude Azimuth Distance (km) Brightness Sun altitude
Exits shadow 09:38:19 21° 31° (NNE) 773 ? -22.2°
Drops below altitude 10° 09:39:20 10° 32° (NNE) 1,191 ? -21.9°
Sets 09:41:15 0° 32° (NNE) 2,007 ? -21.5°
